SCP
0 0 0 0 0 0 0 0 0 0 0 1 2 1 1 1 1 1 0 0 0 0 0 1 1 0 0 0 0 0 0 0
0 0 0 0 0 -0 -0 0 0 0 0 1 1 1 1 1 1 1 1 0 0 0 0 1 1 1 0 0 0 0 0 0
0 0 0 0 0 0 2 2 2 3 2 1 1 0 1 1 1 1 1 0 0 0 0 0 1 0 0 0 0 0 0 0
0 0 0 0 0 0 0 0 5 5 4 2 1 0 0 0 0 0 1 0 0 0 0 0 0 0 0 0 0 0 0 0
0 0 0 0 0 0 0 0 0 0 4 3 4 5 3 1 1 0 0 0 0 0 0 0 1 0 0 0 0 0 0 0
0 0 0 0 0 0 0 0 0 0 3 4 3 2 2 2 2 1 1 0 0 0 1 0 1 1 0 0 0 0 0 0
0 0 0 0 0 0 0 0 0 0 0 0 0 1 2 5 4 3 2 1 1 0 1 1 0 1 1 0 0 0 0 0
0 0 0 0 0 0 0 0 0 0 0 0 0 0 0 1 3 2 3 1 0 2 1 2 1 1 1 0 0 0 0 0
0 0 0 0 0 0 0 0 0 0 0 0 0 0 0 0 1 2 3 3 2 0 2 1 2 1 1 0 0 0 0 0
0 0 0 0 0 0 0 0 0 0 0 0 0 0 0 0 0 0 2 3 3 3 3 3 2 2 1 1 1 1 0 0
0 0 0 0 0 0 0 0 0 0 0 0 0 0 0 0 0 0 2 2 2 5 5 3 2 1 1 2 1 0 0 0
0 0 0 0 0 0 0 0 0 0 0 0 0 0 0 0 0 0 0 3 0 1 2 2 0 0 0 0 1 1 0 0
0 0 0 0 0 0 0 0 0 0 0 0 0 0 0 0 0 0 0 1 -0 2 2 2 3 3 1 1 2 1 1 0
0 0 0 0 0 0 0 0 0 0 0 0 0 0 0 0 0 -0 0 0 1 2 2 2 2 2 1 1 0 1 1 2
0 0 0 0 0 0 0 0 0 0 0 0 0 0 0 0 0 -0 0 0 0 0 0 1 2 2 1 1 1 1 0 1
0 0 0 0 0 0 0 0 0 0 0 0 0 0 0 0 0 0 0 0 0 0 0 0 1 4 3 2 2 2 2 1
0 0 0 0 0 0 0 0 0 0 0 0 0 0 0 0 0 0 0 0 0 0 0 0 1 2 2 3 2 2 2 2
0 0 0 0 0 0 0 0 0 0 0 0 0 0 0 0 0 0 0 0 1 1 1 1 1 1 1 1 2 2 3 2
0 0 0 0 0 0 0 0 0 0 0 0 0 0 0 0 0 0 0 0 0 1 1 1 1 1 1 1 1 1 1 0
0 0 0 0 0 0 0 0 0 0 0 -0 0 0 0 0 0 0 0 0 0 1 1 1 1 1 1 1 1 0 0 0
Wind_Speed_500mb
11 13 29 26 32 14 22 15 22 24 36 39 41 45 41 42 43 43 42 43 44 45 45 47 46 43 42 39 35 32 29 28
24 21 26 34 27 13 6 10 22 13 27 30 28 32 32 38 47 48 48 49 50 48 48 50 49 48 45 43 41 35 32 31
30 30 31 46 32 16 11 18 21 28 32 34 44 42 44 41 44 57 52 52 55 51 47 48 46 39 45 50 46 41 38 36
28 30 32 36 38 20 13 26 27 27 42 36 29 34 41 39 36 38 39 53 55 57 53 52 46 40 30 42 46 41 37 30
31 33 35 40 32 20 27 27 33 32 32 38 48 52 39 48 56 49 47 41 45 63 58 56 55 46 41 35 28 35 30 28
34 31 27 30 28 39 38 25 23 31 30 43 40 48 50 60 53 68 61 51 47 50 65 64 61 53 48 39 40 42 38 41
47 49 48 47 47 39 38 35 33 35 37 36 46 45 46 43 69 57 69 70 60 56 61 65 58 62 51 51 45 51 57 46
42 42 46 45 35 39 40 42 40 44 49 56 54 53 49 52 62 70 64 69 83 74 66 67 66 63 74 59 62 59 62 58
17 17 15 33 31 29 25 21 23 30 40 46 57 66 67 67 68 72 72 69 92 92 72 75 74 73 74 76 70 73 68 63
15 19 20 20 12 8 3 4 11 18 26 36 44 51 69 77 72 69 81 79 77 84 82 78 74 79 75 81 72 76 78 72
13 18 18 8 8 10 12 16 15 9 16 26 36 47 55 63 71 81 68 87 89 86 82 74 77 85 65 77 76 81 82 74
43 39 28 17 12 18 26 29 33 36 29 30 29 39 53 62 63 69 65 83 77 69 53 73 70 70 90 84 87 78 84 81
30 27 27 25 18 15 9 10 14 22 31 35 37 40 47 60 68 64 67 70 53 57 71 61 77 77 79 83 82 89 84 82
24 18 14 20 15 15 17 22 21 21 27 39 45 41 46 51 59 72 67 56 56 63 57 65 73 89 88 77 85 72 93 81
33 31 30 29 24 22 21 31 34 37 44 45 47 58 56 57 56 61 65 60 55 67 60 57 61 72 88 82 65 64 74 80
34 35 37 38 36 35 38 39 42 44 37 39 42 50 57 62 59 57 55 54 56 54 52 51 49 68 76 76 80 70 78 85
25 28 31 41 48 52 54 51 47 40 39 43 51 53 58 63 63 54 51 50 44 48 46 46 57 71 71 74 76 75 70 77
25 35 41 46 54 51 53 56 55 49 42 34 37 49 57 60 56 60 51 47 48 49 51 58 57 56 57 66 62 64 66 75
32 43 49 55 59 57 59 60 59 61 59 54 45 44 46 54 51 61 60 45 43 51 48 45 55 51 47 51 56 60 56 63
28 37 47 45 48 48 58 68 74 70 68 74 66 58 44 50 63 57 63 58 43 41 51 48 44 44 46 43 47 46 49 55
Wind_Direction_500mb
4 289 272 314 328 176 198 224 226 216 225 222 223 228 229 229 228 227 227 226 225 225 223 225 222 221 223 224 225 224 221 216
297 286 273 279 338 77 120 186 208 207 226 232 244 236 245 247 249 239 230 228 230 226 229 227 229 229 229 230 231 227 222 218
285 284 280 270 295 278 252 178 212 209 215 234 243 243 248 258 256 243 239 233 230 229 232 235 233 237 240 235 231 228 225 219
274 272 272 267 274 275 254 243 216 203 226 241 237 239 245 249 252 243 249 240 233 224 226 237 239 239 250 239 231 224 214 211
256 262 270 271 280 280 281 253 255 249 245 241 247 251 233 245 247 246 247 245 236 226 220 231 235 237 244 240 222 220 217 219
262 258 272 264 285 272 266 274 247 251 260 250 257 257 258 243 237 246 244 248 242 233 217 226 229 233 237 238 230 222 220 224
252 253 256 258 266 267 256 266 260 252 254 260 257 265 262 271 257 239 240 244 238 234 230 223 224 223 231 231 229 219 222 216
266 261 256 249 245 251 263 263 266 264 258 257 259 264 267 268 274 266 264 245 235 232 230 230 222 223 223 226 226 214 220 225
74 44 295 242 233 237 243 242 232 240 249 257 256 265 276 270 266 272 274 257 246 235 228 230 224 220 218 222 224 228 225 228
16 36 84 97 96 95 80 275 286 301 295 290 288 282 278 276 266 265 267 269 256 243 238 229 231 222 226 223 226 227 230 227
53 73 73 86 72 22 355 339 329 320 293 295 293 292 288 282 265 262 272 262 262 256 252 242 235 221 227 227 224 228 227 224
71 62 58 55 43 2 340 323 308 297 294 291 298 294 290 280 282 270 274 280 260 257 253 255 257 249 241 229 227 229 231 228
51 38 43 58 36 12 9 322 295 289 295 302 297 298 299 287 277 275 276 287 283 258 266 261 258 252 232 226 226 223 230 233
47 9 342 353 9 344 327 320 307 290 289 290 296 297 301 305 281 274 272 286 266 262 266 264 257 258 256 249 237 236 226 232
21 11 6 14 6 356 340 334 329 324 307 298 294 296 295 293 294 289 284 284 278 270 268 262 261 257 260 256 251 254 241 226
351 348 341 339 329 323 314 311 314 311 315 302 293 292 296 299 300 298 291 278 279 276 273 267 268 265 260 259 250 250 248 249
341 332 339 336 327 316 311 308 306 308 317 302 296 291 289 294 295 305 297 281 271 269 268 259 260 266 266 263 252 251 247 249
316 318 317 310 306 311 307 297 297 296 293 298 292 295 283 283 287 291 292 290 276 257 254 256 259 263 267 267 261 259 255 245
309 307 302 301 297 303 295 291 295 296 294 288 280 276 282 276 277 278 282 287 282 262 256 258 257 260 271 277 272 265 262 259
331 323 316 302 311 298 292 292 295 298 299 289 282 274 283 277 273 276 275 274 275 278 257 255 265 266 262 269 271 272 265 262
Wind_Speed_850mb
11 13 29 26 32 14 22 15 22 24 36 39 41 45 41 42 43 43 42 43 44 45 45 47 46 43 42 39 35 32 29 28
24 21 26 34 27 13 6 10 22 13 27 30 28 32 32 38 47 48 48 49 50 48 48 50 49 48 45 43 41 35 32 31
30 30 31 46 32 16 11 18 21 28 32 34 44 42 44 41 44 57 52 52 55 51 47 48 46 39 45 50 46 41 38 36
28 30 32 36 38 20 13 26 27 27 42 36 29 34 41 39 36 38 39 53 55 57 53 52 46 40 30 42 46 41 37 30
31 33 35 40 32 20 27 27 33 32 32 38 48 52 39 48 56 49 47 41 45 63 58 56 55 46 41 35 28 35 30 28
34 31 27 30 28 39 38 25 23 31 30 43 40 48 50 60 53 68 61 51 47 50 65 64 61 53 48 39 40 42 38 41
47 49 48 47 47 39 38 35 33 35 37 36 46 45 46 43 69 57 69 70 60 56 61 65 58 62 51 51 45 51 57 46
42 42 46 45 35 39 40 42 40 44 49 56 54 53 49 52 62 70 64 69 83 74 66 67 66 63 74 59 62 59 62 58
17 17 15 33 31 29 25 21 23 30 40 46 57 66 67 67 68 72 72 69 92 92 72 75 74 73 74 76 70 73 68 63
15 19 20 20 12 8 3 4 11 18 26 36 44 51 69 77 72 69 81 79 77 84 82 78 74 79 75 81 72 76 78 72
13 18 18 8 8 10 12 16 15 9 16 26 36 47 55 63 71 81 68 87 89 86 82 74 77 85 65 77 76 81 82 74
43 39 28 17 12 18 26 29 33 36 29 30 29 39 53 62 63 69 65 83 77 69 53 73 70 70 90 84 87 78 84 81
30 27 27 25 18 15 9 10 14 22 31 35 37 40 47 60 68 64 67 70 53 57 71 61 77 77 79 83 82 89 84 82
24 18 14 20 15 15 17 22 21 21 27 39 45 41 46 51 59 72 67 56 56 63 57 65 73 89 88 77 85 72 93 81
33 31 30 29 24 22 21 31 34 37 44 45 47 58 56 57 56 61 65 60 55 67 60 57 61 72 88 82 65 64 74 80
34 35 37 38 36 35 38 39 42 44 37 39 42 50 57 62 59 57 55 54 56 54 52 51 49 68 76 76 80 70 78 85
25 28 31 41 48 52 54 51 47 40 39 43 51 53 58 63 63 54 51 50 44 48 46 46 57 71 71 74 76 75 70 77
25 35 41 46 54 51 53 56 55 49 42 34 37 49 57 60 56 60 51 47 48 49 51 58 57 56 57 66 62 64 66 75
32 43 49 55 59 57 59 60 59 61 59 54 45 44 46 54 51 61 60 45 43 51 48 45 55 51 47 51 56 60 56 63
28 37 47 45 48 48 58 68 74 70 68 74 66 58 44 50 63 57 63 58 43 41 51 48 44 44 46 43 47 46 49 55
Wind_Direction_850mb
4 289 272 314 328 176 198 224 226 216 225 222 223 228 229 229 228 227 227 226 225 225 223 225 222 221 223 224 225 224 221 216
297 286 273 279 338 77 120 186 208 207 226 232 244 236 245 247 249 239 230 228 230 226 229 227 229 229 229 230 231 227 222 218
285 284 280 270 295 278 252 178 212 209 215 234 243 243 248 258 256 243 239 233 230 229 232 235 233 237 240 235 231 228 225 219
274 272 272 267 274 275 254 243 216 203 226 241 237 239 245 249 252 243 249 240 233 224 226 237 239 239 250 239 231 224 214 211
256 262 270 271 280 280 281 253 255 249 245 241 247 251 233 245 247 246 247 245 236 226 220 231 235 237 244 240 222 220 217 219
262 258 272 264 285 272 266 274 247 251 260 250 257 257 258 243 237 246 244 248 242 233 217 226 229 233 237 238 230 222 220 224
252 253 256 258 266 267 256 266 260 252 254 260 257 265 262 271 257 239 240 244 238 234 230 223 224 223 231 231 229 219 222 216
266 261 256 249 245 251 263 263 266 264 258 257 259 264 267 268 274 266 264 245 235 232 230 230 222 223 223 226 226 214 220 225
74 44 295 242 233 237 243 242 232 240 249 257 256 265 276 270 266 272 274 257 246 235 228 230 224 220 218 222 224 228 225 228
16 36 84 97 96 95 80 275 286 301 295 290 288 282 278 276 266 265 267 269 256 243 238 229 231 222 226 223 226 227 230 227
53 73 73 86 72 22 355 339 329 320 293 295 293 292 288 282 265 262 272 262 262 256 252 242 235 221 227 227 224 228 227 224
71 62 58 55 43 2 340 323 308 297 294 291 298 294 290 280 282 270 274 280 260 257 253 255 257 249 241 229 227 229 231 228
51 38 43 58 36 12 9 322 295 289 295 302 297 298 299 287 277 275 276 287 283 258 266 261 258 252 232 226 226 223 230 233
47 9 342 353 9 344 327 320 307 290 289 290 296 297 301 305 281 274 272 286 266 262 266 264 257 258 256 249 237 236 226 232
21 11 6 14 6 356 340 334 329 324 307 298 294 296 295 293 294 289 284 284 278 270 268 262 261 257 260 256 251 254 241 226
351 348 341 339 329 323 314 311 314 311 315 302 293 292 296 299 300 298 291 278 279 276 273 267 268 265 260 259 250 250 248 249
341 332 339 336 327 316 311 308 306 308 317 302 296 291 289 294 295 305 297 281 271 269 268 259 260 266 266 263 252 251 247 249
316 318 317 310 306 311 307 297 297 296 293 298 292 295 283 283 287 291 292 290 276 257 254 256 259 263 267 267 261 259 255 245
309 307 302 301 297 303 295 291 295 296 294 288 280 276 282 276 277 278 282 287 282 262 256 258 257 260 271 277 272 265 262 259
331 323 316 302 311 298 292 292 295 298 299 289 282 274 283 277 273 276 275 274 275 278 257 255 265 266 262 269 271 272 265 262